GFSGBSN_700_temp_159.txt.gz
Temp
3 3 3 3 3 3 3 3 3 3 3 3 3 3 4 4 4 4 4 4 4 4 5 5 6 7 7 7 7 7 7 7 7 7 7 7 8 8 8 7 7 7 8 7 8 8 8
3 3 3 3 3 3 3 2 3 3 3 3 3 3 3 3 3 4 4 4 4 4 5 5 6 6 7 7 7 7 7 7 7 7 7 6 7 8 8 7 7 7 8 8 7 8 7
2 2 3 2 3 3 3 2 2 2 2 2 3 2 3 3 3 3 3 3 3 4 4 5 5 6 7 6 7 7 8 6 6 7 7 7 6 7 8 7 8 7 8 8 8 8 7
2 2 2 1 2 2 2 1 2 2 2 2 2 2 2 2 3 3 3 3 3 3 4 5 5 6 7 7 7 7 7 7 6 6 6 6 6 7 7 7 7 7 7 7 8 8 8
2 2 1 1 1 1 1 1 1 1 1 1 1 2 2 2 2 2 3 3 3 3 4 4 5 6 7 7 6 6 6 7 6 6 6 6 6 6 7 6 6 6 6 6 7 7 7
2 2 1 1 1 1 1 1 1 -0 0 0 1 1 1 1 1 1 2 3 3 3 3 4 4 6 6 7 6 6 5 6 6 5 5 5 5 6 6 5 6 6 6 5 6 7 6
1 0 0 1 1 0 0 0 0 -0 0 1 1 1 1 0 1 1 1 1 2 2 3 4 4 4 6 5 5 6 4 5 6 6 5 4 4 7 6 5 5 5 5 5 6 5 5
-0 -0 -0 -0 -1 -0 -0 0 -0 -0 -0 0 -0 0 0 0 0 0 1 1 0 1 3 5 5 4 6 5 6 8 4 4 5 6 4 3 4 7 5 4 4 4 4 5 5 5 5
-1 -0 -0 -1 -1 -0 -1 -1 -0 -1 -1 -1 -0 -1 -1 -1 -0 -0 -0 0 1 0 1 3 6 7 6 7 7 9 5 5 4 4 5 4 4 4 4 4 4 4 4 4 4 5 5
-3 -1 -1 -1 -1 -1 -1 -1 -1 -1 -1 -2 -1 -2 -2 -1 -1 -1 -1 -1 -0 -0 0 2 3 5 6 6 6 6 6 4 3 5 4 2 4 4 4 3 4 3 4 4 4 4 4
-2 -2 -2 -3 -3 -3 -2 -2 -2 -2 -2 -2 -2 -2 -2 -2 -2 -2 -2 -2 -1 -1 -3 3 3 4 5 5 5 6 6 6 6 6 3 4 4 3 3 3 3 3 3 4 4 4 4
-4 -4 -5 -6 -4 -4 -3 -3 -4 -4 -4 -3 -3 -3 -3 -3 -3 -3 -3 -2 -2 -2 -2 2 3 4 4 4 5 5 5 5 4 3 3 3 2 2 3 2 3 2 3 3 3 3 0
-5 -4 -5 -5 -5 -6 -5 -6 -5 -5 -5 -4 -4 -4 -4 -3 -3 -3 -2 -3 -3 -3 0 2 2 3 3 3 3 3 3 3 3 2 2 2 2 2 1 2 2 1 3 2 -0 -1 1
-5 -5 -5 -5 -5 -5 -5 -5 -6 -6 -5 -4 -5 -4 -4 -4 -3 -3 -4 -4 -3 -2 -1 1 1 1 1 1 1 2 2 2 1 1 1 1 2 3 3 2 2 2 2 2 1 -1 0
-6 -6 -6 -6 -6 -5 -5 -5 -5 -5 -5 -5 -5 -5 -3 -5 -5 -4 -5 -5 -3 -3 -2 -1 -0 -0 0 0 0 1 1 1 1 1 1 1 1 2 2 3 2 2 2 3 3 0 -1
-7 -6 -6 -6 -6 -6 -6 -6 -6 -6 -6 -7 -6 -6 -4 -7 -6 -6 -6 -5 -4 -4 -3 -3 -2 -1 -1 0 0 0 1 1 1 2 0 1 1 1 1 2 2 2 2 2 1 -1 -1
-7 -7 -7 -7 -6 -7 -7 -7 -7 -7 -7 -7 -8 -7 -5 -7 -7 -7 -6 -5 -6 -4 -4 -4 -4 -2 -2 -1 -1 -1 -0 0 1 1 1 0 0 0 1 1 2 2 1 2 2 1 -2
-9 -9 -9 -8 -8 -8 -7 -7 -7 -8 -8 -8 -8 -8 -8 -8 -8 -7 -5 -4 -4 -4 -5 -4 -4 -4 -3 -3 -3 -3 -2 -1 -0 -1 0 1 0 0 1 1 1 2 2 2 1 -0 -0
-9 -9 -9 -9 -9 -8 -8 -8 -8 -9 -9 -8 -9 -8 -8 -8 -8 -7 -6 -5 -6 -5 -6 -5 -5 -5 -4 -4 -4 -4 -3 -2 -2 -3 -2 -0 -0 -0 -0 0 0 1 1 1 1 0 -0
-10 -10 -10 -10 -9 -9 -9 -9 -8 -8 -9 -9 -9 -7 -8 -8 -7 -7 -6 -6 -6 -5 -6 -6 -6 -6 -5 -4 -4 -4 -4 -3 -3 -2 -3 -3 -3 -1 -1 0 0 0 0 0 -0 -1 -2
-10 -10 -10 -10 -10 -9 -9 -9 -9 -9 -9 -10 -9 -8 -8 -8 -7 -7 -8 -7 -6 -6 -7 -7 -6 -6 -6 -6 -5 -5 -4 -4 -3 -3 -3 -3 -4 -3 -2 -2 -0 -0 -1 -1 -1 -1 -1
-12 -11 -11 -10 -10 -10 -10 -10 -9 -9 -10 -10 -10 -9 -8 -8 -8 -8 -7 -7 -7 -6 -8 -6 -7 -6 -6 -6 -5 -5 -5 -5 -5 -4 -3 -3 -3 -4 -5 -3 -4 -2 -2 -2 -2 -2 -2
-12 -12 -12 -11 -11 -11 -10 -10 -10 -10 -10 -10 -10 -9 -9 -9 -8 -8 -7 -6 -6 -7 -7 -7 -7 -7 -7 -5 -6 -6 -6 -6 -5 -5 -5 -4 -5 -5 -5 -5 -4 -4 -3 -2 -1 -2 -2
-12 -12 -12 -12 -12 -12 -12 -11 -11 -11 -11 -10 -10 -10 -10 -9 -9 -8 -8 -7 -7 -7 -7 -7 -7 -7 -6 -6 -7 -6 -6 -6 -6 -5 -5 -5 -4 -5 -5 -5 -6 -3 -2 -2 -2 -1 -2
-12 -12 -12 -12 -12 -12 -12 -12 -12 -12 -11 -11 -10 -11 -10 -9 -9 -9 -8 -7 -8 -7 -8 -7 -6 -7 -8 -7 -7 -6 -6 -5 -4 -4 -5 -5 -5 -6 -6 -5 -4 -3 -3 -2 -2 -2 -2
-13 -13 -13 -13 -12 -12 -12 -12 -12 -12 -12 -12 -11 -12 -12 -11 -10 -10 -9 -8 -8 -8 -8 -8 -7 -7 -7 -7 -7 -6 -6 -6 -5 -5 -4 -5 -5 -6 -6 -4 -6 -3 -3 -3 -2 -3 -3
-13 -13 -13 -13 -13 -13 -13 -13 -13 -13 -13 -12 -12 -12 -13 -12 -10 -10 -10 -9 -9 -8 -8 -8 -8 -7 -7 -7 -7 -7 -7 -6 -6 -6 -6 -5 -6 -6 -6 -6 -4 -4 -4 -3 -4 -3 -3
-13 -13 -13 -13 -13 -13 -13 -13 -13 -13 -13 -13 -13 -13 -13 -12 -10 -10 -10 -10 -9 -8 -8 -8 -8 -8 -8 -8 -7 -7 -7 -7 -6 -6 -6 -5 -5 -5 -6 -6 -6 -4 -4 -4 -4 -4 -4
-13 -13 -13 -13 -13 -13 -13 -13 -14 -14 -14 -14 -13 -13 -13 -13 -11 -10 -10 -9 -9 -9 -8 -8 -8 -8 -7 -7 -7 -7 -7 -7 -6 -6 -7 -7 -6 -5 -5 -4 -4 -4 -4 -4 -4 -4 -4

GFSGBSN_700_temp_162.txt.gz
Temp
4 4 4 4 3 3 3 3 3 3 3 3 3 3 4 3 3 4 4 4 4 4 4 5 6 6 7 7 7 7 7 6 7 7 7 7 8 7 7 7 7 7 7 7 8 8 8
3 3 3 3 3 3 3 3 3 3 3 3 3 3 3 3 3 4 4 4 4 4 4 4 5 6 7 6 7 7 7 7 7 7 7 7 7 7 7 7 7 7 7 7 7 7 8
2 2 3 3 2 3 3 3 3 3 2 2 2 2 3 3 3 3 4 3 3 4 4 4 5 5 7 6 7 7 7 7 7 7 7 7 7 7 7 7 7 7 7 7 7 7 7
2 2 2 2 2 2 2 2 2 2 2 2 2 2 2 2 3 3 3 3 3 3 3 3 5 5 6 7 7 7 6 7 6 6 7 8 7 7 7 6 6 6 7 7 7 7 7
2 2 2 2 2 2 2 2 2 2 1 1 2 1 2 2 2 3 2 3 2 3 3 3 4 5 6 7 6 6 5 6 7 6 6 7 8 7 7 6 5 6 6 7 7 7 7
1 1 1 1 2 1 1 1 1 1 1 1 1 0 0 1 1 1 2 3 2 2 3 3 4 4 5 6 5 6 5 4 5 6 6 6 6 7 7 6 5 6 6 6 6 6 6
1 1 1 1 1 1 1 1 1 1 1 0 0 1 -0 -0 0 1 1 2 2 2 3 3 3 4 5 5 4 6 5 5 4 5 5 5 5 7 7 5 5 4 5 5 6 6 5
1 1 1 1 1 1 -0 1 0 1 0 0 0 -1 -0 0 0 1 1 1 1 1 3 4 4 4 5 5 6 7 5 4 5 5 5 4 5 7 5 5 4 4 4 4 5 5 5
-1 -0 -0 -1 -1 -1 -1 -1 -0 -0 -0 -0 -0 0 -0 -1 -0 -0 -0 -0 -0 -0 1 3 5 6 6 6 6 8 6 6 5 4 5 4 5 6 5 5 4 4 3 4 3 4 4
-3 -2 -2 -2 -2 -1 -1 -1 -1 -1 -1 -1 -1 -1 -1 -1 -1 -1 -1 -1 -1 -1 -1 2 3 5 6 5 5 5 6 5 4 5 5 3 4 5 4 4 4 3 4 3 3 3 3
-4 -3 -3 -3 -3 -3 -2 -2 -2 -2 -1 -2 -2 -1 -1 -2 -2 -2 -1 -2 -2 -2 -3 2 2 3 4 4 5 5 5 4 4 5 4 5 4 4 4 4 3 3 2 3 3 3 3
-4 -4 -3 -3 -4 -4 -3 -4 -4 -3 -2 -2 -2 -2 -2 -2 -2 -3 -4 -3 -3 -3 -3 2 2 4 5 4 4 4 4 4 5 3 3 3 2 2 2 2 2 2 2 3 3 2 -0
-5 -5 -4 -4 -4 -4 -5 -5 -4 -5 -5 -4 -5 -4 -4 -5 -4 -4 -5 -4 -4 -3 0 1 1 2 3 3 3 3 3 3 3 3 3 3 3 2 2 2 2 2 1 1 -1 -1 -0
-5 -5 -5 -5 -6 -6 -5 -5 -6 -5 -6 -6 -5 -5 -5 -5 -5 -6 -6 -5 -5 -1 -1 -0 1 1 1 2 1 1 2 1 1 1 1 1 2 3 3 3 3 2 2 1 0 -2 -0
-6 -6 -6 -6 -5 -5 -6 -5 -6 -6 -6 -6 -6 -6 -6 -6 -6 -5 -6 -5 -4 -3 -3 -2 -1 -0 0 0 0 1 1 2 2 2 1 1 1 2 2 2 2 1 1 1 2 0 -1
-7 -7 -7 -6 -6 -6 -6 -6 -6 -6 -7 -7 -7 -7 -6 -7 -7 -7 -6 -6 -5 -4 -3 -3 -3 -2 -1 -1 -0 -0 0 0 1 1 1 0 0 1 1 2 2 1 2 1 1 -1 -0
-7 -7 -7 -7 -7 -6 -6 -6 -7 -7 -8 -8 -7 -7 -6 -7 -7 -7 -6 -5 -5 -4 -5 -4 -4 -4 -4 -3 -2 -2 -1 -1 -1 -0 -1 -1 -0 -0 0 1 1 1 1 1 1 1 -0
-8 -8 -8 -7 -7 -7 -7 -7 -7 -8 -8 -8 -8 -8 -7 -8 -7 -7 -6 -5 -5 -5 -5 -5 -5 -5 -4 -4 -4 -4 -3 -2 -1 -4 -2 -2 -2 -1 -1 -0 0 1 1 1 1 -1 -0
-10 -10 -9 -9 -9 -8 -8 -8 -8 -8 -9 -8 -8 -8 -8 -7 -8 -7 -7 -6 -6 -5 -6 -6 -5 -5 -5 -5 -5 -4 -4 -3 -3 -4 -4 -4 -4 -3 -1 -1 0 0 1 1 1 1 1
-11 -10 -10 -10 -10 -9 -9 -9 -9 -9 -9 -9 -9 -9 -7 -8 -8 -8 -7 -7 -7 -6 -6 -7 -7 -6 -6 -6 -5 -5 -5 -5 -4 -4 -4 -4 -4 -4 -4 -3 -3 -1 0 1 1 0 0
-11 -11 -11 -10 -10 -10 -10 -9 -9 -9 -9 -10 -10 -9 -9 -8 -8 -8 -8 -7 -7 -7 -7 -7 -7 -6 -7 -6 -6 -6 -5 -5 -5 -5 -5 -6 -4 -4 -4 -3 -3 -3 -2 -0 -0 0 -1
-12 -12 -11 -11 -11 -10 -10 -10 -10 -10 -10 -10 -9 -9 -9 -8 -8 -8 -8 -8 -7 -7 -8 -7 -7 -7 -7 -7 -7 -6 -6 -6 -6 -6 -6 -6 -5 -5 -5 -4 -4 -3 -3 -3 -1 -1 -1
-12 -12 -12 -12 -11 -11 -11 -10 -10 -10 -10 -10 -10 -9 -9 -9 -9 -9 -8 -8 -7 -8 -8 -7 -7 -8 -7 -6 -7 -7 -7 -7 -6 -6 -6 -6 -6 -6 -5 -4 -5 -5 -3 -2 -3 -2 -2
-12 -12 -12 -12 -12 -11 -11 -11 -11 -11 -11 -10 -10 -10 -10 -10 -9 -9 -9 -8 -8 -8 -8 -8 -8 -8 -6 -7 -7 -7 -7 -7 -6 -6 -6 -6 -6 -6 -6 -5 -5 -4 -3 -2 -3 -3 -2
-12 -12 -12 -12 -12 -12 -12 -12 -12 -12 -11 -11 -10 -11 -11 -11 -10 -9 -9 -9 -9 -9 -8 -8 -8 -7 -8 -8 -8 -8 -7 -7 -5 -4 -4 -4 -6 -6 -5 -5 -5 -3 -2 -2 -3 -2 -2
-12 -12 -12 -12 -12 -12 -12 -13 -12 -12 -12 -12 -11 -11 -12 -12 -10 -10 -10 -9 -9 -8 -8 -8 -8 -8 -8 -8 -8 -8 -7 -6 -6 -5 -5 -4 -5 -6 -6 -6 -6 -3 -2 -3 -3 -3 -2
-13 -13 -13 -12 -12 -12 -13 -13 -13 -13 -12 -12 -12 -12 -13 -12 -10 -10 -10 -10 -9 -9 -9 -8 -9 -8 -8 -8 -8 -7 -7 -7 -7 -6 -5 -6 -6 -6 -6 -6 -5 -3 -3 -3 -3 -3 -3
-13 -13 -13 -13 -13 -13 -13 -13 -13 -13 -13 -13 -12 -12 -13 -12 -11 -10 -10 -10 -10 -10 -9 -9 -9 -8 -8 -8 -8 -8 -7 -7 -7 -6 -6 -6 -6 -6 -6 -6 -6 -4 -4 -4 -3 -3 -4
-13 -13 -13 -13 -13 -13 -13 -13 -13 -13 -13 -13 -13 -13 -13 -13 -13 -11 -11 -11 -10 -10 -10 -10 -9 -8 -8 -7 -7 -8 -7 -7 -7 -7 -6 -7 -6 -6 -6 -6 -6 -5 -4 -4 -4 -5 -4

GFSGBSN_700_temp_165.txt.gz
Temp
4 5 4 4 4 4 3 3 3 3 3 3 3 3 3 3 3 4 4 4 4 5 5 6 6 6 7 6 7 7 7 7 7 8 7 7 7 7 7 7 7 7 7 7 7 7 8
4 4 4 3 3 3 3 3 3 3 3 3 3 3 3 3 3 3 4 4 4 4 4 5 6 6 6 6 7 7 7 7 7 7 7 7 6 7 8 7 8 7 7 7 7 7 7
3 3 3 2 3 3 2 2 3 2 3 3 3 3 3 3 3 3 4 3 3 4 4 4 5 5 6 6 6 7 7 7 6 7 7 6 6 6 7 8 8 7 7 7 7 7 7
3 2 2 2 2 2 2 2 2 2 2 2 2 2 2 2 2 3 3 3 3 3 4 4 5 4 6 5 6 7 7 7 6 6 6 6 6 6 6 7 8 7 7 7 7 7 7
2 2 2 2 2 2 1 2 2 2 2 2 2 2 2 2 2 2 3 3 3 3 3 3 4 4 6 6 6 6 6 6 6 6 5 5 6 6 6 6 7 7 7 7 6 7 6
2 2 1 1 2 1 1 1 1 1 1 1 2 1 1 1 1 1 2 1 2 2 3 3 3 4 6 6 5 6 5 5 5 5 5 5 5 6 7 6 6 7 6 7 7 6 6
1 1 1 0 1 1 1 1 1 1 1 1 1 1 1 1 1 -0 0 0 1 2 2 2 2 3 5 5 5 7 5 4 4 5 5 4 4 7 7 6 5 6 5 6 7 6 5
1 1 1 1 1 1 0 1 1 1 1 1 1 0 0 0 1 -0 -1 0 0 1 2 4 3 3 5 5 6 7 6 5 5 5 4 3 4 6 6 5 5 4 4 5 6 6 4
-1 -0 -0 0 -0 -0 -0 -1 0 -0 0 -1 -1 -1 -0 -0 -0 -0 -0 -0 -0 -1 -0 3 4 5 5 6 6 8 6 6 5 5 5 4 4 5 5 5 4 5 4 5 4 5 4
-2 -2 -2 -1 -1 -1 -1 -2 -1 -1 -1 -1 -1 -1 -1 -1 -1 -1 -1 -1 -1 -1 -1 2 3 4 5 5 5 6 5 4 4 5 4 3 3 4 4 3 3 3 4 3 3 3 3
-3 -3 -3 -3 -2 -2 -2 -2 -3 -2 -2 -2 -2 -2 -2 -2 -1 -1 -1 -1 -1 -1 -1 2 2 3 5 5 4 5 5 4 4 3 3 4 3 4 4 5 3 3 2 2 2 2 2
-3 -3 -3 -3 -3 -3 -3 -3 -3 -3 -3 -3 -3 -3 -2 -2 -2 -2 -2 -2 -2 -2 -2 2 2 3 3 3 3 3 3 4 3 2 2 3 3 2 3 3 3 2 1 2 2 2 1
-3 -4 -4 -4 -4 -4 -3 -4 -4 -4 -4 -4 -4 -4 -3 -2 -2 -3 -3 -3 -3 -3 0 1 1 1 2 3 3 3 2 1 2 2 2 2 3 2 2 2 2 2 1 2 2 1 3
-4 -5 -6 -6 -5 -5 -4 -4 -4 -5 -5 -6 -5 -5 -5 -5 -5 -4 -5 -5 -4 -2 -1 -0 -1 -1 -0 0 1 1 1 1 1 1 1 1 2 3 3 2 2 2 2 2 2 3 3
-6 -6 -7 -6 -6 -5 -5 -5 -5 -6 -6 -7 -6 -6 -6 -6 -6 -6 -6 -5 -4 -3 -3 -2 -1 -2 -1 -0 -0 0 0 0 0 0 0 1 1 2 2 2 2 1 0 1 1 1 -1
-7 -7 -7 -6 -7 -6 -6 -6 -5 -5 -6 -7 -6 -6 -6 -6 -7 -7 -7 -6 -5 -4 -4 -4 -3 -2 -2 -2 -1 -1 -0 -0 -0 -0 -0 -1 -1 1 1 1 1 1 1 0 -0 0 -0
-8 -8 -7 -7 -7 -7 -7 -7 -6 -7 -7 -7 -7 -7 -6 -7 -7 -7 -7 -6 -6 -5 -5 -4 -4 -4 -4 -3 -3 -3 -2 -2 -1 -2 -1 -2 -2 -1 -1 -0 0 1 0 0 0 1 1
-9 -9 -8 -8 -8 -8 -7 -7 -7 -7 -8 -8 -8 -8 -7 -7 -8 -8 -7 -6 -6 -5 -6 -5 -5 -5 -5 -5 -5 -4 -4 -4 -3 -4 -3 -5 -4 -3 -2 -1 -1 0 0 0 0 0 -0
-10 -10 -10 -9 -9 -9 -8 -8 -8 -8 -9 -9 -9 -8 -8 -8 -8 -8 -7 -7 -6 -6 -6 -6 -6 -6 -6 -5 -6 -5 -5 -4 -4 -4 -5 -4 -5 -4 -2 -1 -1 -1 -1 -0 -0 -0 -0
-11 -11 -10 -10 -10 -10 -9 -9 -9 -9 -10 -9 -9 -9 -9 -7 -8 -8 -7 -7 -7 -6 -6 -7 -7 -7 -6 -6 -6 -6 -6 -5 -5 -5 -5 -5 -5 -4 -3 -2 -2 -3 -2 -3 -3 -1 -1
-12 -12 -11 -11 -10 -10 -10 -10 -10 -10 -10 -10 -10 -10 -9 -8 -8 -8 -8 -8 -7 -7 -7 -8 -7 -7 -7 -7 -7 -7 -6 -6 -6 -5 -5 -6 -6 -6 -5 -5 -5 -5 -5 -3 -4 -3 -3
-12 -12 -12 -12 -11 -11 -11 -10 -10 -10 -10 -10 -11 -10 -10 -9 -8 -9 -8 -8 -8 -8 -8 -8 -8 -7 -7 -7 -7 -7 -7 -7 -7 -6 -6 -6 -6 -6 -5 -4 -5 -5 -5 -4 -3 -3 -3
-12 -12 -12 -12 -12 -11 -11 -11 -11 -11 -11 -10 -10 -10 -9 -9 -9 -9 -9 -9 -8 -8 -8 -8 -8 -8 -8 -6 -8 -8 -8 -7 -7 -7 -7 -7 -7 -7 -6 -5 -5 -5 -3 -2 -2 -2 -3
-12 -12 -12 -12 -12 -12 -11 -11 -11 -11 -11 -11 -10 -11 -10 -9 -10 -9 -9 -9 -9 -9 -9 -9 -8 -8 -7 -8 -8 -7 -7 -7 -7 -6 -6 -7 -7 -7 -6 -6 -5 -3 -3 -2 -3 -2 -3
-12 -12 -12 -12 -12 -12 -12 -12 -12 -12 -11 -11 -11 -11 -11 -11 -10 -9 -10 -10 -10 -10 -10 -9 -8 -8 -8 -8 -8 -8 -7 -7 -5 -5 -5 -6 -6 -7 -6 -5 -4 -3 -3 -2 -2 -1 -2
-12 -12 -12 -12 -12 -12 -12 -12 -12 -12 -12 -12 -11 -12 -11 -11 -10 -10 -10 -10 -9 -9 -8 -8 -8 -8 -9 -8 -8 -8 -8 -7 -6 -6 -6 -5 -7 -7 -6 -6 -5 -3 -3 -3 -3 -3 -2
-12 -12 -12 -12 -12 -12 -12 -12 -12 -13 -13 -13 -12 -12 -12 -11 -11 -11 -10 -10 -10 -10 -9 -9 -9 -9 -8 -8 -8 -8 -8 -7 -7 -7 -6 -6 -7 -7 -6 -6 -5 -4 -4 -4 -4 -3 -3
-12 -12 -12 -12 -12 -12 -12 -12 -12 -12 -13 -13 -13 -12 -12 -11 -11 -11 -11 -11 -10 -10 -9 -10 -10 -9 -9 -8 -8 -8 -7 -7 -7 -7 -6 -7 -7 -7 -6 -6 -5 -5 -5 -6 -4 -4 -4
-12 -12 -13 -13 -13 -12 -12 -13 -13 -13 -13 -13 -13 -13 -13 -13 -12 -11 -11 -11 -11 -11 -10 -11 -11 -10 -9 -10 -10 -8 -8 -8 -7 -8 -7 -7 -7 -6 -6 -5 -6 -6 -6 -6 -6 -4 -4

GFSGBSN_700_temp_168.txt.gz
Temp
4 4 4 4 4 5 4 4 4 4 3 3 4 3 3 4 4 4 4 4 4 4 4 5 6 7 7 7 6 7 7 7 8 7 7 7 6 6 6 7 7 7 7 8 8 8 7
4 4 4 4 4 4 4 4 4 3 3 3 3 3 3 4 4 4 4 4 4 4 4 5 5 6 7 6 7 7 7 7 8 8 7 7 7 6 7 7 7 7 7 7 8 8 7
3 3 3 3 3 3 3 3 2 3 3 3 3 3 3 3 3 3 3 3 3 3 4 4 5 5 6 6 6 6 7 7 8 8 8 7 6 6 6 6 7 7 7 7 7 7 7
3 3 3 3 2 2 2 2 2 2 2 2 2 3 3 2 3 3 3 2 3 3 3 3 4 4 6 6 6 6 7 7 7 7 7 7 6 6 6 6 6 6 6 8 8 8 7
2 2 2 2 2 2 2 2 2 2 2 2 2 2 2 2 2 2 2 2 3 2 3 3 3 3 5 6 6 6 6 6 6 6 6 6 6 6 6 5 5 5 8 8 7 7 6
2 2 2 1 1 1 1 1 2 2 1 1 2 2 2 2 3 2 2 2 2 2 2 3 3 3 5 5 5 5 5 5 5 6 5 5 6 5 5 5 7 9 7 7 8 7 6
1 1 1 1 1 1 1 1 1 2 2 1 1 1 2 2 1 2 2 1 2 2 3 3 3 3 5 4 3 5 6 5 5 5 5 3 4 5 6 5 6 6 6 7 7 5 6
1 1 1 1 1 1 1 1 1 1 1 1 1 1 1 1 0 1 1 1 1 1 2 3 3 3 6 4 5 6 6 5 6 6 3 3 3 5 5 5 4 4 5 6 6 5 4
-0 0 1 1 0 0 -0 0 1 0 1 1 0 -0 0 0 -0 -0 0 -0 -0 -1 0 2 4 5 5 5 5 7 6 6 5 4 4 3 5 4 4 3 3 4 5 5 5 5 4
-1 -2 -1 -1 -1 -1 -1 -1 -0 -0 -1 -1 -0 -1 -1 -0 -1 -1 -1 -1 -1 -1 -1 1 2 4 4 3 4 5 6 4 4 4 3 3 3 3 3 3 4 5 5 3 4 4 5
-2 -3 -2 -2 -2 -2 -2 -2 -2 -2 -2 -2 -1 -2 -1 -1 -1 -1 -2 -1 -1 -1 1 2 2 3 3 3 3 4 4 5 4 2 2 4 3 3 3 4 3 4 4 3 3 4 4
-3 -3 -3 -3 -3 -3 -3 -3 -3 -3 -3 -3 -2 -2 -2 -2 -2 -2 -2 -2 -2 -2 0 1 2 2 3 2 2 2 3 3 3 3 1 2 2 2 3 3 3 2 2 2 2 3 4
-3 -3 -2 -3 -3 -3 -4 -4 -3 -4 -4 -4 -3 -3 -3 -3 -2 -2 -2 -2 -3 -2 0 0 -0 1 2 1 1 1 1 2 2 2 2 2 2 1 2 2 2 2 2 4 4 4 6
-5 -4 -3 -4 -4 -4 -4 -4 -4 -4 -4 -4 -5 -4 -4 -3 -3 -3 -3 -4 -4 -1 -0 -0 -1 -1 0 1 0 1 0 1 0 1 2 3 4 2 2 2 3 2 3 5 5 7 8
-8 -8 -7 -6 -6 -5 -5 -4 -4 -4 -5 -5 -5 -5 -5 -5 -5 -4 -5 -5 -3 -3 -3 -2 -1 -1 -0 0 -0 1 0 0 0 0 1 2 2 2 2 1 2 2 2 3 3 3 3
-9 -8 -8 -8 -7 -7 -7 -7 -6 -6 -6 -6 -6 -6 -6 -6 -6 -6 -6 -6 -5 -4 -4 -4 -3 -3 -2 -2 -1 -1 -1 -1 -1 -1 -1 -2 -1 1 1 1 1 1 2 1 1 1 3
-10 -9 -9 -9 -8 -8 -7 -7 -7 -6 -7 -7 -7 -8 -6 -6 -6 -6 -6 -6 -6 -6 -5 -4 -4 -4 -4 -3 -3 -3 -2 -3 -3 -3 -3 -3 -3 0 0 0 1 1 0 1 2 2 2
-10 -10 -10 -10 -9 -8 -8 -8 -7 -7 -8 -8 -8 -8 -7 -7 -7 -6 -6 -6 -7 -7 -6 -6 -5 -5 -5 -4 -4 -5 -4 -4 -4 -4 -4 -5 -5 -3 -1 -1 -0 0 1 1 1 0 1
-11 -11 -11 -11 -10 -9 -9 -9 -8 -8 -9 -9 -9 -8 -8 -8 -8 -7 -7 -7 -8 -7 -7 -6 -6 -6 -5 -6 -5 -5 -4 -5 -5 -5 -4 -5 -5 -3 -1 0 -1 -1 -0 -0 -1 -2 -2
-11 -11 -11 -11 -10 -10 -10 -10 -9 -9 -9 -9 -10 -9 -8 -8 -8 -8 -8 -8 -8 -7 -8 -7 -7 -7 -6 -6 -6 -6 -5 -5 -6 -5 -5 -5 -5 -5 -3 -2 -4 -4 -2 -3 -3 -4 -2
-11 -11 -12 -12 -11 -11 -10 -10 -10 -10 -10 -10 -10 -9 -9 -8 -8 -8 -8 -8 -8 -8 -8 -8 -8 -6 -7 -7 -6 -6 -6 -6 -6 -6 -5 -6 -6 -6 -5 -5 -4 -4 -4 -4 -4 -4 -4
-12 -12 -12 -12 -12 -11 -11 -11 -11 -10 -11 -11 -11 -10 -10 -10 -8 -8 -9 -8 -8 -7 -8 -8 -8 -7 -7 -7 -7 -6 -6 -6 -6 -6 -6 -6 -6 -6 -6 -5 -5 -5 -5 -5 -4 -4 -3
-12 -12 -12 -12 -12 -12 -11 -11 -11 -11 -11 -11 -11 -10 -10 -9 -9 -9 -9 -9 -8 -8 -8 -8 -8 -8 -8 -7 -7 -7 -8 -8 -7 -7 -7 -6 -6 -6 -5 -4 -4 -5 -3 -4 -3 -3 -3
-12 -12 -12 -12 -12 -12 -12 -12 -11 -11 -11 -11 -11 -10 -10 -10 -9 -9 -10 -9 -9 -9 -9 -8 -8 -8 -8 -7 -7 -7 -7 -8 -8 -7 -7 -7 -7 -7 -6 -5 -5 -3 -3 -3 -3 -3 -3
-12 -12 -12 -12 -12 -12 -12 -12 -12 -11 -11 -11 -11 -11 -11 -11 -11 -10 -10 -11 -10 -9 -9 -9 -9 -9 -9 -8 -8 -7 -8 -8 -6 -5 -7 -7 -7 -7 -6 -5 -3 -3 -3 -3 -4 -3 -2
-12 -12 -12 -12 -12 -12 -12 -12 -12 -12 -12 -12 -11 -11 -11 -11 -10 -12 -11 -10 -10 -10 -9 -9 -8 -8 -8 -9 -9 -8 -6 -5 -5 -6 -6 -6 -7 -7 -6 -5 -3 -3 -3 -3 -3 -3 -3
-12 -12 -12 -12 -12 -12 -12 -12 -12 -12 -12 -12 -12 -12 -12 -11 -11 -11 -11 -11 -11 -10 -10 -9 -9 -9 -9 -9 -9 -8 -7 -6 -6 -5 -6 -6 -7 -7 -6 -6 -6 -4 -4 -4 -4 -3 -3
-12 -12 -12 -12 -12 -12 -12 -12 -12 -12 -12 -12 -12 -12 -12 -12 -11 -11 -11 -11 -11 -11 -10 -10 -10 -11 -10 -8 -8 -8 -7 -6 -6 -6 -6 -5 -6 -6 -6 -6 -4 -5 -5 -5 -5 -5 -6
-11 -12 -12 -12 -12 -12 -12 -12 -12 -12 -12 -12 -12 -13 -12 -12 -12 -11 -11 -11 -11 -11 -11 -10 -11 -11 -11 -11 -11 -11 -10 -9 -7 -7 -7 -7 -6 -5 -6 -5 -6 -6 -6 -6 -6 -6 -7

GFSGBSN_700_temp_171.txt.gz
Temp
5 5 5 5 5 5 5 5 5 5 4 4 4 4 4 4 4 5 5 5 4 4 5 5 6 6 7 7 7 5 6 7 7 8 8 7 7 7 8 9 9 9 9 9 9 8 8
4 4 4 4 5 5 5 4 4 4 4 4 4 4 4 4 4 4 4 4 4 4 4 5 5 5 6 7 6 6 6 6 7 8 8 7 6 6 8 7 8 9 8 9 9 8 8
3 4 4 4 4 4 4 4 4 4 4 3 3 3 3 3 3 3 4 4 3 3 3 4 5 5 6 7 6 7 6 6 7 7 8 5 7 7 6 7 7 7 7 8 8 8 8
3 3 3 3 3 3 3 3 3 3 3 3 3 3 3 3 4 3 4 4 3 3 3 3 4 4 6 6 6 7 7 6 7 7 7 7 7 7 6 6 6 7 8 8 9 9 9
2 2 3 2 3 3 2 2 2 2 2 2 3 3 3 3 3 4 3 3 3 3 3 3 3 4 6 7 5 6 6 5 6 6 7 6 6 6 6 6 7 8 8 10 10 10 9
2 2 2 2 2 2 2 2 2 2 2 2 2 2 2 2 3 3 3 3 3 3 3 4 4 3 5 6 3 5 5 5 6 3 4 6 5 5 6 7 9 10 10 10 10 11 8
2 2 2 2 2 2 2 2 2 2 2 2 2 2 2 2 2 2 3 2 1 1 2 4 2 3 5 4 3 4 5 4 5 3 4 5 5 6 8 8 8 8 9 9 10 10 8
1 1 1 1 1 1 2 2 1 1 2 2 2 2 2 2 1 1 1 1 1 1 1 2 3 4 5 5 3 7 3 3 4 4 4 5 6 6 7 8 8 7 7 8 8 9 8
-0 0 0 0 1 1 1 1 1 1 1 1 1 1 0 0 1 1 1 1 1 0 0 2 4 5 5 6 6 7 3 3 3 3 5 5 7 7 6 6 7 6 7 7 8 8 8
-1 -1 -1 -0 -0 -0 -0 -0 0 1 0 0 -0 0 0 0 0 0 0 0 0 -0 -0 2 1 4 5 4 5 5 5 2 2 3 3 5 5 6 6 6 6 7 7 7 7 7 8
-1 -1 -2 -2 -1 -1 -1 -1 -2 -1 -2 -2 -2 -1 -1 -1 -1 -1 -1 -0 -1 -1 1 4 1 3 4 4 3 4 4 3 3 3 3 5 6 5 6 6 6 6 6 6 6 6 6
-3 -2 -2 -2 -2 -2 -2 -3 -2 -2 -2 -2 -2 -2 -2 -2 -2 -2 -2 -2 -2 -1 -0 2 1 3 3 3 2 1 2 3 2 1 3 3 5 4 5 5 5 6 5 4 5 5 6
-3 -3 -3 -3 -3 -3 -3 -3 -3 -3 -3 -3 -3 -3 -3 -2 -2 -2 -2 -3 -2 -2 2 3 1 2 1 2 1 1 1 2 2 3 4 4 4 4 3 4 3 4 5 4 4 5 7
-6 -5 -4 -4 -3 -3 -3 -3 -3 -4 -4 -4 -4 -4 -4 -3 -3 -3 -3 -3 -3 0 1 1 0 0 1 2 2 2 2 3 3 3 4 5 6 6 4 3 5 4 4 5 6 7 8
-8 -7 -7 -7 -6 -5 -4 -4 -4 -4 -4 -4 -4 -5 -5 -4 -4 -4 -5 -4 -2 -0 0 -0 -1 0 2 1 1 1 2 3 2 1 3 4 5 5 3 4 3 5 4 4 4 4 4
-8 -8 -8 -8 -8 -8 -7 -6 -5 -5 -5 -4 -5 -5 -5 -5 -5 -5 -5 -5 -3 -2 -3 -3 -1 -1 1 1 -1 0 1 -1 -1 1 1 0 0 3 3 2 3 3 4 3 0 2 4
-9 -9 -9 -9 -9 -9 -8 -7 -7 -6 -7 -7 -7 -7 -6 -6 -6 -6 -6 -5 -4 -4 -4 -4 -2 -3 -2 -2 -2 -1 -0 -2 -2 -2 -2 -1 -1 1 2 2 3 3 2 2 2 1 1
-9 -9 -9 -9 -9 -9 -9 -8 -8 -8 -8 -8 -8 -8 -7 -7 -7 -6 -6 -6 -5 -4 -5 -6 -4 -3 -3 -3 -3 -3 -2 -3 -3 -3 -3 -3 -3 -2 1 2 1 0 1 2 1 1 2
-10 -10 -10 -10 -10 -9 -9 -9 -8 -8 -8 -9 -9 -8 -8 -7 -7 -7 -6 -6 -6 -6 -6 -6 -5 -5 -5 -5 -5 -5 -4 -4 -4 -5 -5 -4 -4 -2 1 1 1 1 1 1 2 0 -2
-11 -11 -11 -11 -11 -10 -10 -10 -10 -9 -8 -9 -9 -8 -8 -7 -7 -7 -7 -6 -6 -7 -6 -6 -6 -5 -5 -5 -6 -5 -5 -5 -5 -6 -5 -5 -5 -4 -2 -0 -3 -4 -3 -3 -3 -3 -1
-11 -11 -11 -11 -11 -11 -11 -10 -10 -10 -10 -10 -10 -9 -8 -8 -7 -7 -7 -7 -7 -7 -7 -6 -6 -6 -6 -6 -6 -6 -5 -5 -5 -5 -6 -6 -6 -6 -5 -4 -4 -3 -3 -3 -3 -2 -3
-11 -11 -11 -11 -11 -11 -12 -11 -11 -12 -11 -11 -10 -9 -9 -8 -8 -8 -8 -8 -8 -7 -6 -6 -7 -6 -6 -6 -6 -5 -4 -4 -4 -4 -5 -5 -6 -5 -6 -4 -4 -3 -3 -3 -2 -2 -2
-11 -11 -11 -11 -11 -11 -12 -11 -11 -12 -12 -11 -11 -10 -10 -8 -9 -8 -8 -8 -7 -8 -7 -7 -7 -7 -6 -6 -6 -6 -6 -6 -6 -5 -5 -5 -5 -5 -5 -3 -3 -3 -3 -3 -2 -2 -1
-12 -11 -12 -12 -11 -11 -11 -12 -12 -12 -11 -11 -11 -11 -11 -10 -9 -9 -9 -8 -8 -8 -8 -8 -7 -7 -7 -7 -7 -6 -6 -6 -7 -6 -6 -6 -6 -6 -6 -5 -5 -3 -2 -2 -2 -1 -1
-11 -12 -12 -12 -11 -12 -11 -11 -12 -12 -11 -11 -12 -11 -11 -11 -10 -9 -9 -9 -9 -9 -8 -8 -8 -8 -8 -8 -8 -7 -7 -6 -6 -6 -5 -5 -5 -6 -6 -5 -4 -3 -2 -2 -1 -1 -1
-12 -12 -12 -12 -12 -11 -11 -11 -12 -12 -11 -11 -11 -11 -11 -12 -11 -11 -10 -11 -11 -10 -10 -9 -9 -9 -9 -9 -8 -8 -6 -5 -4 -4 -4 -5 -5 -5 -6 -5 -3 -2 -2 -2 -3 -3 -2
-12 -12 -12 -12 -12 -12 -11 -11 -12 -12 -12 -12 -12 -11 -11 -11 -11 -12 -11 -11 -11 -11 -10 -10 -10 -9 -9 -8 -9 -7 -6 -6 -5 -4 -4 -5 -5 -6 -6 -6 -5 -5 -4 -4 -4 -3 -5
-11 -11 -11 -12 -12 -11 -12 -11 -12 -12 -12 -12 -12 -12 -12 -11 -11 -12 -11 -11 -11 -11 -11 -11 -11 -9 -9 -10 -9 -8 -7 -7 -7 -5 -4 -3 -4 -5 -5 -5 -5 -5 -5 -5 -5 -6 -6
-11 -11 -12 -12 -12 -12 -12 -11 -12 -11 -11 -12 -12 -12 -12 -12 -12 -11 -12 -11 -12 -11 -12 -11 -11 -11 -11 -11 -10 -11 -11 -9 -8 -7 -6 -5 -5 -4 -5 -5 -6 -6 -6 -6 -5 -5 -6